[[{"header":{"parameterUnit":"m.s-1","parameterCategory":1,"la1":30.2991,"la2":30.254,"lo1":-89.0895,"lo2":-89.0444,"dy":0.0017,"dx":0.0017,"nx":28,"ny":28,"refTime":"2023-08-18T03:00:00:Z","depth":0,"parameterNumber":2,"parameterNumberName":"U-component_of_WINDS"},"data":[0,0,0,0,0,0,0,0,0,0,0,0,0,0,0,0,0,0,0,0,0,0,0,0,0,0,0,0,0,0,0,0,0,0,0,0,0,0,0,0,0,0,0,0,0,0,0,0,0,0,0,0,0,0,0,0,0,0,2.7469,2.7469,0,2.7477,2.7477,2.7477,2.7429,2.7427,2.7426,2.7425,2.7434,2.7435,2.7437,0,0,0,0,0,0,0,0,0,0,0,0,0,2.7414,2.7415,2.7469,2.7469,2.7469,2.7477,2.7477,2.7477,2.7429,2.7427,2.7426,2.7424,2.7433,2.7435,2.7437,0,0,0,0,0,0,0,0,0,0,0,0,0,2.7432,2.7416,2.7469,2.7446,2.7444,2.7477,2.7477,2.7477,2.7429,2.7427,2.7425,2.7423,2.7433,2.7435,2.7437,2.7493,0,0,2.7444,2.7445,0,0,0,0,0,0,0,0,2.7431,2.7434,2.7449,2.7448,2.7446,2.745,2.7461,2.7483,2.743,2.7435,2.7425,2.7422,2.7441,2.7442,2.7448,2.7493,2.7494,2.7444,2.7446,2.7447,2.7448,0,0,0,0,0,0,0,2.743,2.7433,2.7472,2.745,2.7447,2.7436,2.7436,2.7465,2.745,2.7434,2.7431,2.7432,2.7439,2.7446,2.7448,2.7494,2.7444,2.7446,2.7448,2.7449,2.7587,2.7589,0,0,0,0,0,0,2.7431,2.7433,2.7472,2.7472,2.7433,2.7439,2.7439,2.7451,2.7449,2.7447,2.7434,2.743,2.7443,2.7446,2.7449,2.7515,2.7447,2.7449,2.745,2.7585,2.7588,2.759,0,0,0,0,0,0,2.743,2.7435,2.7472,2.7452,2.7455,2.7442,2.7455,2.7452,2.7459,2.7449,2.7446,2.7444,2.7442,2.7445,2.7483,2.7514,2.745,2.7452,2.7582,2.7586,2.7589,2.7647,0,0,0,0,0,0,2.7429,2.7435,2.7455,2.7452,2.7457,2.7505,2.7457,2.7453,2.7463,2.7457,2.7457,2.7455,2.7441,2.748,2.7485,2.7516,2.7454,2.7579,2.7584,2.7588,2.7642,2.7652,2.766,0,0,0,0,0,2.7427,2.7471,2.7457,2.7462,2.7482,2.7507,2.7509,2.7491,2.7465,2.7486,2.748,2.7455,2.751,2.7484,2.7489,2.7522,2.7577,2.7582,2.7587,2.7638,2.765,2.766,0,0,0,0,0,0,2.7478,2.747,2.7454,2.7498,2.7504,2.7499,2.7524,2.7504,2.7517,2.7512,2.7489,2.749,2.7531,2.753,2.7501,2.7577,2.7539,2.7546,2.7576,2.7587,2.7596,2.7595,2.7456,0,0,0,0,0,2.7494,2.7515,2.7507,2.7547,2.7551,2.7537,2.7548,2.7533,2.7538,2.754,2.7537,2.7543,2.7562,2.7574,2.7591,2.7642,2.7642,2.7667,2.7676,2.7684,2.769,2.7718,2.773,2.7607,2.7607,2.7607,0,0,2.7528,2.7526,2.7541,2.7557,2.756,2.7583,2.7539,2.7565,2.7582,2.7544,2.7579,2.7578,2.7583,2.7628,2.7648,2.7628,2.7724,2.7691,2.7697,2.7698,2.7725,2.7736,2.7747,2.7611,2.761,2.7609,0,0,2.7601,2.7602,2.7636,2.764,2.7644,2.7635,2.7644,2.7642,2.764,2.7675,2.7648,2.7668,2.77,2.7706,2.7713,2.7791,2.7769,2.7798,2.7845,2.7873,2.7882,2.7891,2.792,2.793,2.7803,2.7804,2.7804,0,2.7643,2.7675,2.7656,2.7684,2.7692,2.766,2.7695,2.77,2.771,2.7717,2.7696,2.7737,2.7738,2.7785,2.7804,2.7811,2.782,2.7797,2.7883,2.7891,2.7898,2.7926,2.7936,2.7807,2.7807,2.7806,2.7806,0,2.7726,2.775,2.7777,2.7788,2.78,2.7831,2.7817,2.7832,2.7818,2.7812,2.7849,2.785,2.7866,2.7877,2.7863,2.7922,2.791,2.7886,2.7848,2.7914,2.7939,2.7949,2.7812,2.7811,2.781,2.7809,0,0,2.783,2.7831,2.7841,2.7847,2.7851,2.7869,2.79,2.7916,2.793,2.7939,2.7965,2.7994,2.7972,2.7981,2.7967,2.7992,2.8055,2.7965,2.7965,2.7982,2.8122,2.814,2.8152,2.8041,2.8043,2.8045,2.8122,0,2.7902,2.7953,2.7938,2.7991,2.8013,2.7984,2.8011,2.8017,2.8013,2.8032,2.8027,2.8049,2.8018,2.8023,2.8047,2.8043,2.8083,2.8037,2.8066,2.8067,2.8065,2.8165,2.8184,2.8256,2.8131,2.8133,2.8134,0,2.7992,2.8005,2.806,2.8062,2.8071,2.8095,2.811,2.8129,2.8136,2.8131,2.8142,2.8124,2.8155,2.8118,2.8162,2.8131,2.8142,2.8142,2.8145,2.8146,2.8104,2.8169,2.8279,2.829,2.8149,2.8148,2.8147,0,2.8063,2.8094,2.8131,2.8137,2.814,2.8158,2.816,2.8165,2.8177,2.8191,2.8198,2.8216,2.8225,2.824,2.8228,2.8201,2.8274,2.8235,2.8272,2.8272,2.8287,2.8286,2.84,2.8295,2.8295,2.8295,2.8295,0,2.8144,2.8179,2.8163,2.8186,2.8225,2.8208,2.8247,2.8246,2.8251,2.8274,2.8251,2.8273,2.8256,2.8277,2.8268,2.8307,2.8311,2.8309,2.8306,2.8311,2.8311,2.8317,2.8312,2.8298,2.8297,2.8297,2.8296,0,2.8229,2.8219,2.8258,2.8259,2.826,2.8289,2.829,2.8311,2.8307,2.8336,2.8342,2.8335,2.8358,2.8348,2.8373,2.8368,2.8417,2.8407,2.8414,2.8412,2.8449,2.8446,2.857,2.8586,2.8471,2.8472,2.8473,0,2.8281,2.8308,2.8312,2.8326,2.833,2.8352,2.8364,2.8349,2.8363,2.8375,2.8396,2.8418,2.8434,2.8474,2.8471,2.8491,2.8482,2.8524,2.8484,2.8489,2.8483,2.8481,2.8484,2.8532,2.8533,2.8534,2.8535,0,2.8376,2.8371,2.8389,2.8407,2.8422,2.8435,2.8446,2.8459,2.8445,2.8462,2.8486,2.8499,2.8526,2.8548,2.8566,2.8569,2.8551,2.8548,2.8557,2.8562,2.8565,2.8565,2.8436,2.8545,2.8544,2.8543,2.8543,2.8542,2.8446,2.8469,2.8476,2.8498,2.8505,2.8516,2.8537,2.8535,2.8555,2.8575,2.8566,2.8595,2.8603,2.8625,2.8631,2.8654,2.8638,2.8651,2.8655,2.8658,2.8663,2.8562,2.8657,2.8657,2.8657,2.8657,2.8656,0,2.854,2.8543,2.8564,2.858,2.8598,2.8579,2.8591,2.8607,2.8633,2.8642,2.866,2.8689,2.8711,2.8711,2.8732,2.875,2.8742,2.8756,2.8755,2.8756,2.8677,2.8666,2.8763,2.8763,2.8763,2.8763,2.8762,2.8762,2.8591,2.8628,2.8624,2.8666,2.8669,2.8697,2.8706,2.8717,2.8724,2.8758,2.8776,2.8776,2.8782,2.8804,2.8824,2.8823,2.8832,2.885,2.8846,2.8772,2.8761,2.8751,2.8741,2.8852,2.8852,2.8923,2.8924,2.8924]},{"header":{"parameterUnit":"m.s-1","parameterCategory":1,"la1":30.2991,"la2":30.254,"lo1":-89.0895,"lo2":-89.0444,"dy":0.0017,"dx":0.0017,"nx":28,"ny":28,"refTime":"2023-08-18T03:00:00:Z","depth":0,"parameterNumber":3,"parameterNumberName":"V-component_of_WINDS"},"data":[0,0,0,0,0,0,0,0,0,0,0,0,0,0,0,0,0,0,0,0,0,0,0,0,0,0,0,0,0,0,0,0,0,0,0,0,0,0,0,0,0,0,0,0,0,0,0,0,0,0,0,0,0,0,0,0,0,0,-0.6839,-0.6839,0,-0.6862,-0.6863,-0.6863,-0.6872,-0.6872,-0.6872,-0.6872,-0.6895,-0.6896,-0.6897,0,0,0,0,0,0,0,0,0,0,0,0,0,-0.6804,-0.6804,-0.6839,-0.6839,-0.684,-0.6862,-0.6863,-0.6863,-0.6872,-0.6872,-0.6872,-0.6872,-0.6895,-0.6896,-0.6897,0,0,0,0,0,0,0,0,0,0,0,0,0,-0.6822,-0.6805,-0.6839,-0.6847,-0.6848,-0.6862,-0.6863,-0.6863,-0.6872,-0.6872,-0.6872,-0.6872,-0.6895,-0.6896,-0.6897,-0.6904,0,0,-0.69,-0.69,0,0,0,0,0,0,0,0,-0.6821,-0.6824,-0.6846,-0.6847,-0.6848,-0.6864,-0.6859,-0.6877,-0.6873,-0.6863,-0.6872,-0.6872,-0.6885,-0.6887,-0.6891,-0.6905,-0.6906,-0.69,-0.6901,-0.6901,-0.6901,0,0,0,0,0,0,0,-0.682,-0.6823,-0.6848,-0.6846,-0.6847,-0.685,-0.6852,-0.6862,-0.6874,-0.6864,-0.6865,-0.6867,-0.6886,-0.689,-0.6892,-0.6907,-0.69,-0.6901,-0.6901,-0.6902,-0.693,-0.693,0,0,0,0,0,0,-0.6817,-0.6821,-0.6847,-0.6849,-0.6834,-0.6851,-0.6853,-0.6859,-0.6874,-0.6876,-0.6867,-0.6868,-0.6889,-0.6891,-0.6893,-0.6904,-0.6901,-0.6902,-0.6902,-0.693,-0.693,-0.693,0,0,0,0,0,0,-0.6816,-0.6819,-0.6847,-0.6835,-0.6839,-0.6851,-0.6858,-0.686,-0.6864,-0.6877,-0.6879,-0.687,-0.6889,-0.6891,-0.6902,-0.6905,-0.6902,-0.6903,-0.693,-0.693,-0.693,-0.6925,0,0,0,0,0,0,-0.6815,-0.6819,-0.6822,-0.6835,-0.684,-0.6855,-0.6858,-0.686,-0.6866,-0.6867,-0.688,-0.6882,-0.6889,-0.69,-0.6903,-0.6906,-0.6904,-0.693,-0.693,-0.693,-0.6925,-0.6925,-0.6925,0,0,0,0,0,-0.6814,-0.6819,-0.6822,-0.6825,-0.6843,-0.6855,-0.6857,-0.6866,-0.6866,-0.6869,-0.6878,-0.6881,-0.6904,-0.6901,-0.6904,-0.6908,-0.6929,-0.693,-0.693,-0.6925,-0.6925,-0.6925,0,0,0,0,0,0,-0.6804,-0.6821,-0.6824,-0.6833,-0.6843,-0.6857,-0.6861,-0.6865,-0.6874,-0.6875,-0.6884,-0.6887,-0.6897,-0.6903,-0.69,-0.6917,-0.6917,-0.6918,-0.6912,-0.6912,-0.6913,-0.6911,-0.6905,0,0,0,0,0,-0.6803,-0.6811,-0.6825,-0.6832,-0.6837,-0.6848,-0.6853,-0.6859,-0.6869,-0.6873,-0.6882,-0.6892,-0.6901,-0.6907,-0.6916,-0.6926,-0.693,-0.693,-0.693,-0.693,-0.6931,-0.6938,-0.6939,-0.6932,-0.6932,-0.6932,0,0,-0.6801,-0.6811,-0.6815,-0.683,-0.6838,-0.6847,-0.6851,-0.686,-0.6867,-0.6874,-0.6885,-0.6892,-0.6904,-0.6915,-0.692,-0.692,-0.6934,-0.6931,-0.6931,-0.6931,-0.6939,-0.694,-0.694,-0.6932,-0.6932,-0.6932,0,0,-0.6802,-0.681,-0.6817,-0.6825,-0.6838,-0.6846,-0.6847,-0.6861,-0.6866,-0.6878,-0.6884,-0.6893,-0.6908,-0.6917,-0.6923,-0.6929,-0.6934,-0.6932,-0.6932,-0.694,-0.694,-0.6941,-0.6944,-0.6945,-0.6933,-0.6933,-0.6933,0,-0.6797,-0.681,-0.682,-0.6829,-0.6836,-0.6844,-0.6853,-0.686,-0.6875,-0.688,-0.688,-0.6902,-0.691,-0.6923,-0.6925,-0.693,-0.6933,-0.693,-0.6939,-0.694,-0.6941,-0.6944,-0.6945,-0.6933,-0.6933,-0.6933,-0.6933,0,-0.6805,-0.6815,-0.6819,-0.6834,-0.6842,-0.685,-0.6861,-0.6868,-0.6874,-0.6881,-0.6894,-0.6904,-0.6917,-0.692,-0.6925,-0.6935,-0.6935,-0.6937,-0.6938,-0.6941,-0.6944,-0.6946,-0.6932,-0.6932,-0.6932,-0.6932,0,0,-0.6799,-0.6821,-0.6822,-0.683,-0.6845,-0.6853,-0.6862,-0.6875,-0.6881,-0.6892,-0.69,-0.6915,-0.6917,-0.6925,-0.6931,-0.6937,-0.6943,-0.6939,-0.6939,-0.694,-0.6956,-0.6955,-0.6956,-0.6946,-0.6947,-0.6947,-0.6956,0,-0.6802,-0.6819,-0.6829,-0.6843,-0.6852,-0.6862,-0.687,-0.6881,-0.6889,-0.6899,-0.6907,-0.6918,-0.692,-0.6925,-0.6931,-0.6941,-0.6947,-0.694,-0.6955,-0.6956,-0.6952,-0.6958,-0.6956,-0.6964,-0.6957,-0.6957,-0.6957,0,-0.6808,-0.6819,-0.6834,-0.685,-0.6854,-0.6862,-0.6875,-0.6884,-0.6897,-0.6903,-0.6912,-0.6919,-0.693,-0.693,-0.6946,-0.6942,-0.6949,-0.6955,-0.6955,-0.6957,-0.6957,-0.696,-0.6966,-0.6968,-0.6959,-0.6959,-0.6959,0,-0.6803,-0.6822,-0.6834,-0.684,-0.6859,-0.6864,-0.6872,-0.6885,-0.6893,-0.6905,-0.691,-0.6923,-0.693,-0.694,-0.6951,-0.695,-0.6967,-0.6967,-0.6972,-0.6972,-0.6975,-0.6975,-0.6983,-0.6979,-0.6979,-0.6979,-0.6979,0,-0.6806,-0.6814,-0.6832,-0.6839,-0.685,-0.6862,-0.6872,-0.6881,-0.6893,-0.6902,-0.6911,-0.692,-0.6933,-0.6944,-0.6952,-0.6965,-0.6968,-0.6974,-0.6976,-0.6973,-0.6972,-0.6978,-0.6978,-0.6979,-0.6979,-0.6979,-0.6979,0,-0.6802,-0.6814,-0.6827,-0.6845,-0.685,-0.6857,-0.6872,-0.688,-0.6889,-0.6901,-0.6905,-0.692,-0.6933,-0.6945,-0.6962,-0.6968,-0.6981,-0.6984,-0.6977,-0.6978,-0.6983,-0.6983,-0.6995,-0.6998,-0.6991,-0.6991,-0.6991,0,-0.6803,-0.681,-0.6829,-0.6836,-0.6845,-0.6856,-0.6865,-0.6877,-0.6885,-0.6902,-0.6908,-0.6922,-0.6934,-0.6956,-0.6968,-0.6982,-0.6985,-0.6988,-0.6987,-0.6985,-0.6986,-0.6986,-0.6987,-0.6988,-0.6988,-0.6988,-0.6988,0,-0.6804,-0.681,-0.6822,-0.6836,-0.6846,-0.6858,-0.687,-0.6876,-0.6891,-0.69,-0.6914,-0.6924,-0.6943,-0.6957,-0.6973,-0.6982,-0.6988,-0.6989,-0.6991,-0.6988,-0.6985,-0.6988,-0.6978,-0.6988,-0.6988,-0.6988,-0.6988,-0.6988,-0.6803,-0.6811,-0.6826,-0.6839,-0.685,-0.6862,-0.687,-0.6882,-0.6894,-0.691,-0.6917,-0.6932,-0.6947,-0.6968,-0.6978,-0.699,-0.6991,-0.6993,-0.6994,-0.6995,-0.6995,-0.6983,-0.6993,-0.6993,-0.6993,-0.6993,-0.6993,0,-0.6805,-0.6816,-0.6828,-0.6846,-0.6857,-0.6862,-0.6877,-0.6885,-0.6899,-0.6912,-0.6924,-0.6942,-0.6956,-0.6971,-0.6986,-0.6993,-0.6997,-0.6997,-0.6997,-0.6999,-0.6993,-0.699,-0.6994,-0.6994,-0.6994,-0.6994,-0.6994,-0.6994,-0.6807,-0.6821,-0.6829,-0.6849,-0.686,-0.6875,-0.6883,-0.6894,-0.6905,-0.6924,-0.6937,-0.6946,-0.6961,-0.6978,-0.6992,-0.6996,-0.7001,-0.7001,-0.7006,-0.7,-0.6999,-0.6999,-0.6996,-0.7002,-0.7002,-0.7011,-0.7011,-0.7011]}]]